Regional Weather Roundup
Issued by NWS Cleveland, OH

Home | Current Version | Previous Version | Graphics & Text | Print | Product List | Glossary On
Versions: 1 2 3 4 5 6 7 8 9 10 11 12 13 14 15 16 17 18 19 20 21 22 23 24 25 26 27 28 29 30 31 32 33 34 35 36 37 38 39 40 41 42 43 44 45 46 47 48 49 50
000
ASUS41 KCLE 220510
RWRCLE
OHIO REGIONAL WEATHER ROUNDUP
NATIONAL WEATHER SERVICE WILMINGTON, OH
1200 AM EST SAT NOV 22 2014

NOTE: "FAIR" INDICATES FEW OR NO CLOUDS BELOW 12,000 FEET WITH NO
SIGNIFICANT WEATHER AND/OR OBSTRUCTIONS TO VISIBILITY.

OHZ001>008-015>018-024>027-034-035-043-044-220600-
   NORTHWEST OHIO

CITY           SKY/WX    TMP DP  RH WIND       PRES   REMARKS
DEFIANCE       PTCLDY    20  11  68 S6        30.34F WCI  12
FINDLAY        PTCLDY    19  10  68 S10       30.35F WCI   7
TOLEDO EXPRESS CLEAR     18  10  71 S6        30.35F WCI  10
TOLEDO METCALF PTCLDY    19   9  65 S8        30.37F WCI   9
LIMA           CLEAR     21  11  65 S13       30.33F WCI   9
$$

OHZ009>014-019>023-028>033-038-089-220600-
   NORTHEAST OHIO

CITY           SKY/WX    TMP DP  RH WIND       PRES   REMARKS
CLE-HOPKINS    PTCLDY    17   8  67 S7        30.41F WCI   8
CLE-LAKEFRONT  PTCLDY    21   9  59 SE14      30.39F WCI   8
CUY CO. ARPT   NOT AVBL
LORAIN-ELYRIA  PTCLDY    18   9  68 S10       30.38F WCI   6
ASHTABULA      PTCLDY    17   6  62 S8        30.40F WCI   7
AKRON-CANTON   CLEAR     16   7  67 S7        30.38F WCI   6
WOOSTER        PTCLDY    12   5  73 S5        30.39S WCI   4
MANSFIELD      PTCLDY    20   9  62 S13       30.35F WCI   7
YOUNGSTOWN     PTCLDY    17   6  62 SE6       30.38F WCI   9
$$

OHZ042-051>053-060>062-070>072-077>081-220600-
  SOUTHWEST OHIO

CITY           SKY/WX    TMP DP  RH WIND       PRES   REMARKS
CINC-COVINGTON PTCLDY    28  11  48 S6        30.37F WCI  22
CINC-LUNKEN    PTCLDY    20  15  81 CALM      30.42F
HAMILTON       PTCLDY    18  13  80 CALM      30.40F
DAYTON         PTCLDY    22  13  68 SE8       30.36F WCI  12
WRIGHT-PAT AFB PTCLDY    19  10  68 E1        30.37F
DAYTON GENERAL PTCLDY    24  11  57 S8        30.36F WCI  15
WILMINGTON     PTCLDY    21   8  57 SE7       30.37F WCI  12
$$

OHZ036-037-039>041-045>050-054>059-063>069-073>076-082>088-220600-
  CENTRAL AND SOUTHEAST OHIO

CITY           SKY/WX    TMP DP  RH WIND       PRES   REMARKS
COLUMBUS       MOCLDY    23   8  52 SE5       30.40F WCI  17
OSU AIRPORT    PTCLDY    22   9  57 S7        30.39F WCI  13
BOLTON FIELD   MOCLDY    17   9  68 MISG      30.40F
RICKENBACK AFB MOCLDY    17   9  71 CALM      30.41S
NEWARK         PTCLDY    11   6  81 CALM      30.41F
MARION         PTCLDY    19   8  62 S9        30.37F WCI   8
LANCASTER      MOCLDY    12   8  84 CALM      30.41F
ZANESVILLE     PTCLDY    15   9  76 CALM      30.42S
NEW PHILLY     PTCLDY    14  10  84 SE3       30.43S
$$


USA.gov is the U.S. government's official web portal to all federal, state and local government web resources and services.